Weather in Nymburk

Czech Republic     50°11′16″N   15°02′15″E
temp.,
°C
wind,
m/s
gust,
m/s
humid.,
%
clouds,
%
prec.,
mm/h
press.,
hPa
HPBL,
m
8 may, sat
sat823:00+3w37875 0.0 1019114
02:00+2wsw36895 0.0 1020100
05:00+1wsw34905 0.0 102169
08:00+6wsw35735 0.0 1022329
11:00+10wsw455696 0.1 10211494
14:00+13wsw3544100 0.1 10202282
17:00+14ssw244391 0.0 10191969
20:00+9se336270 0.0 101922
9 may, sun
sun923:00+6se366795 0.0 101988
02:00+4e457647 0.0 101977
05:00+4e47855 0.0 1018114
08:00+8ese457535 0.0 1018231
11:00+16se56605 0.0 1016789
14:00+19se785666 0.0 10151051
17:00+19se7106611 0.0 1014905
20:00+14se7137251 0.0 1014470
10 may, mon
mon1023:00+11ese613746 0.0 1014348
02:00+10ese613715 0.0 1013334
05:00+9ese511795 0.0 1012237
08:00+12se697734 0.0 1012542
11:00+17se67660 0.0 1011852
14:00+21se66580 0.0 10111228
17:00+22se566656 0.0 10101123
20:00+18e4985100 0.0 1010168
11 may, tue
tue1123:00+15e6128996 0.0 1010254
02:00+14e51089100 0.0 1008221
05:00+12e4993100 0.0 1008186
08:00+15ese5884100 0.0 1009493
11:00+19se446934 0.0 1008942
14:00+23ese566168 0.0 10061492
17:00+23ese6966100 0.0 10051173
20:00+20ese7147028 0.0 1004548
12 may, wed
wed1223:00+20se9166662 0.0 1003824
02:00+17se714771 0.0 1003646
05:00+15ese5118328 0.0 1004402
08:00+16se5117543 0.0 1004724
11:00+17ese467543 0.1 1004618
14:00+17s4779100 0.8 1004646
17:00+14se2791100 1.3 1004390
20:00+13ene3494100 1.4 1004110